Location: Chavannes
(47.1090°N, 0.2226°W)
Time: 14:34:43
(UTC+00:00)

SL-19 R/B - Pass Details

Date: 16 October 2021
Orbit: 874 x 1209 km, 100.6° (Epoch: 06 December)

Event Time Altitude Azimuth Distance (km) Brightness Sun altitude
Rises 18:04:56 0° 16° (NNE) 3,658 7.3 -9.9°
Reaches altitude 10° 18:07:27 10° 16° (NNE) 2,666 6.6 -10.3°
Maximum altitude 18:13:21 83° 289° (WNW) 913 4.4 -11.3°
Drops below altitude 10° 18:18:55 10° 202° (SSW) 2,527 7.0 -12.2°
Sets 18:21:15 0° 202° (SSW) 3,454 7.7 -12.6°
